Time,TemperatureF,DewpointF,PressureIn,WindDirection,WindDirectionDegrees,WindSpeedMPH,WindSpeedGustMPH,Humidity,HourlyPrecipIn,Conditions,Clouds,dailyrainin,SoftwareType,DateUTC
2013-11-20 00:01:00,24.6,22.1,30.39,SE,145,0.0,0.0,90,0.00,,,0.00,meteobridge,2013-11-20 05:01:00,
2013-11-20 00:02:00,24.4,21.9,30.39,SE,145,0.0,0.0,90,0.00,,,0.00,meteobridge,2013-11-20 05:02:00,
2013-11-20 00:03:00,24.6,22.1,30.39,SE,146,0.0,0.0,90,0.00,,,0.00,meteobridge,2013-11-20 05:03:00,
2013-11-20 00:08:00,24.4,21.9,30.39,SE,145,0.0,0.0,90,0.00,,,0.00,meteobridge,2013-11-20 05:08:00,
2013-11-20 00:13:00,24.6,22.1,30.39,SE,146,0.0,0.0,90,0.00,,,0.00,meteobridge,2013-11-20 05:13:00,
2013-11-20 00:19:00,24.6,22.1,30.39,SE,146,0.0,0.0,90,0.00,,,0.00,meteobridge,2013-11-20 05:19:00,
2013-11-20 00:24:00,24.6,22.1,30.39,SE,146,0.0,0.0,90,0.00,,,0.00,meteobridge,2013-11-20 05:24:00,
2013-11-20 00:29:00,24.6,22.1,30.39,SE,145,0.0,0.0,90,0.00,,,0.00,meteobridge,2013-11-20 05:29:00,
2013-11-20 00:34:00,24.6,22.1,30.39,SE,146,0.0,0.0,90,0.00,,,0.00,meteobridge,2013-11-20 05:34:00,
2013-11-20 00:39:00,24.6,22.1,30.39,SE,145,0.0,0.0,90,0.00,,,0.00,meteobridge,2013-11-20 05:39:00,
2013-11-20 00:44:00,24.8,22.5,30.39,SSE,150,0.0,0.9,91,0.00,,,0.00,meteobridge,2013-11-20 05:44:00,
2013-11-20 00:49:00,25.0,22.5,30.39,SSE,150,0.0,0.0,90,0.00,,,0.00,meteobridge,2013-11-20 05:49:00,
2013-11-20 00:54:00,25.0,22.5,30.39,SSE,150,0.0,0.0,90,0.00,,,0.00,meteobridge,2013-11-20 05:54:00,
2013-11-20 00:59:00,25.2,22.6,30.39,SSE,150,0.0,0.0,90,0.00,,,0.00,meteobridge,2013-11-20 05:59:00,
2013-11-20 01:04:00,25.5,23.0,30.39,SSE,151,0.0,0.0,90,0.00,,,0.00,meteobridge,2013-11-20 06:04:00,
2013-11-20 01:09:00,25.5,23.0,30.39,SSE,150,0.0,0.0,90,0.00,,,0.00,meteobridge,2013-11-20 06:09:00,
2013-11-20 01:15:00,25.5,22.8,30.38,SSE,151,0.0,0.0,89,0.00,,,0.00,meteobridge,2013-11-20 06:15:00,
2013-11-20 01:20:00,25.7,23.0,30.38,SSE,151,0.0,0.0,89,0.00,,,0.00,meteobridge,2013-11-20 06:20:00,
2013-11-20 01:25:00,26.2,23.4,30.38,SSE,150,0.0,0.0,89,0.00,,,0.00,meteobridge,2013-11-20 06:25:00,
2013-11-20 01:30:00,26.6,23.5,30.38,SSE,150,0.0,0.0,88,0.00,,,0.00,meteobridge,2013-11-20 06:30:00,
2013-11-20 01:35:00,26.8,23.7,30.38,SSE,150,0.0,0.0,88,0.00,,,0.00,meteobridge,2013-11-20 06:35:00,
2013-11-20 01:40:00,27.0,23.5,30.38,SSE,150,0.0,0.0,87,0.00,,,0.00,meteobridge,2013-11-20 06:40:00,
2013-11-20 01:45:00,27.0,23.4,30.38,SSE,151,0.0,0.0,86,0.00,,,0.00,meteobridge,2013-11-20 06:45:00,
2013-11-20 01:50:00,26.8,23.2,30.38,SSE,150,0.0,0.0,86,0.00,,,0.00,meteobridge,2013-11-20 06:50:00,
2013-11-20 01:55:00,26.8,23.2,30.38,SSE,150,0.0,0.0,86,0.00,,,0.00,meteobridge,2013-11-20 06:55:00,
2013-11-20 02:01:00,26.4,22.8,30.38,SSE,150,0.0,0.0,86,0.00,,,0.00,meteobridge,2013-11-20 07:01:00,
2013-11-20 02:07:00,26.8,23.2,30.38,SSE,150,0.0,0.0,86,0.00,,,0.00,meteobridge,2013-11-20 07:07:00,
2013-11-20 02:12:00,26.6,22.6,30.38,SSE,150,0.0,0.0,85,0.00,,,0.00,meteobridge,2013-11-20 07:12:00,
2013-11-20 02:17:00,26.8,22.8,30.38,SSE,150,0.0,0.0,85,0.00,,,0.00,meteobridge,2013-11-20 07:17:00,
2013-11-20 02:22:00,27.0,23.4,30.38,SSE,150,0.0,0.9,86,0.00,,,0.00,meteobridge,2013-11-20 07:22:00,
2013-11-20 02:27:00,27.3,23.4,30.38,SSE,150,0.0,0.0,85,0.00,,,0.00,meteobridge,2013-11-20 07:27:00,
2013-11-20 02:32:00,27.5,23.5,30.38,SSE,150,0.0,0.0,85,0.00,,,0.00,meteobridge,2013-11-20 07:32:00,
2013-11-20 02:37:00,27.5,23.4,30.38,SSE,150,0.0,0.0,84,0.00,,,0.00,meteobridge,2013-11-20 07:37:00,
2013-11-20 02:43:00,27.3,23.2,30.38,SSE,150,0.0,0.0,84,0.00,,,0.00,meteobridge,2013-11-20 07:43:00,
2013-11-20 02:48:00,27.0,22.8,30.39,SSE,151,0.0,0.0,84,0.00,,,0.00,meteobridge,2013-11-20 07:48:00,
2013-11-20 02:53:00,26.8,22.6,30.39,SSE,150,0.0,0.0,84,0.00,,,0.00,meteobridge,2013-11-20 07:53:00,
2013-11-20 02:59:00,26.8,22.8,30.39,SSE,150,0.0,0.0,85,0.00,,,0.00,meteobridge,2013-11-20 07:59:00,
2013-11-20 03:04:00,26.4,22.3,30.39,SSE,150,0.0,0.0,84,0.00,,,0.00,meteobridge,2013-11-20 08:04:00,
2013-11-20 03:09:00,26.6,22.6,30.39,SSE,150,0.0,0.0,85,0.00,,,0.00,meteobridge,2013-11-20 08:09:00,
2013-11-20 03:14:00,27.0,23.0,30.39,East,101,0.0,0.9,85,0.00,,,0.00,meteobridge,2013-11-20 08:14:00,
2013-11-20 03:19:00,27.1,23.0,30.39,East,101,0.0,0.0,84,0.00,,,0.00,meteobridge,2013-11-20 08:19:00,
2013-11-20 03:25:00,27.5,23.4,30.39,East,101,0.0,0.0,84,0.00,,,0.00,meteobridge,2013-11-20 08:25:00,
2013-11-20 03:30:00,27.5,23.4,30.39,East,101,0.0,0.0,84,0.00,,,0.00,meteobridge,2013-11-20 08:30:00,
2013-11-20 03:35:00,27.7,23.2,30.39,East,101,0.9,0.9,83,0.00,,,0.00,meteobridge,2013-11-20 08:35:00,
2013-11-20 03:40:00,27.3,23.2,30.39,East,101,0.9,0.9,84,0.00,,,0.00,meteobridge,2013-11-20 08:40:00,
2013-11-20 03:45:00,27.3,23.2,30.38,East,101,0.0,0.9,84,0.00,,,0.00,meteobridge,2013-11-20 08:45:00,
2013-11-20 03:51:00,27.5,23.5,30.38,East,101,0.0,0.9,85,0.00,,,0.00,meteobridge,2013-11-20 08:51:00,
2013-11-20 03:56:00,27.3,23.2,30.38,East,101,0.0,0.9,84,0.00,,,0.00,meteobridge,2013-11-20 08:56:00,
2013-11-20 04:01:00,27.3,23.4,30.38,East,101,0.0,0.9,85,0.00,,,0.00,meteobridge,2013-11-20 09:01:00,
2013-11-20 04:06:00,27.3,23.2,30.38,East,94,0.9,0.9,84,0.00,,,0.00,meteobridge,2013-11-20 09:06:00,
2013-11-20 04:11:00,27.5,23.4,30.38,East,94,0.0,0.0,84,0.00,,,0.00,meteobridge,2013-11-20 09:11:00,
2013-11-20 04:16:00,27.1,22.6,30.38,East,98,0.0,0.0,83,0.00,,,0.00,meteobridge,2013-11-20 09:16:00,
2013-11-20 04:21:00,27.0,22.8,30.38,East,94,0.0,0.9,84,0.00,,,0.00,meteobridge,2013-11-20 09:21:00,
2013-11-20 04:27:00,27.0,22.8,30.38,East,94,0.0,0.9,84,0.00,,,0.00,meteobridge,2013-11-20 09:27:00,
2013-11-20 04:32:00,27.1,23.2,30.39,East,94,0.0,0.9,85,0.00,,,0.00,meteobridge,2013-11-20 09:32:00,
2013-11-20 04:37:00,27.0,22.8,30.39,East,94,0.0,0.0,84,0.00,,,0.00,meteobridge,2013-11-20 09:37:00,
2013-11-20 04:43:00,26.4,22.3,30.39,East,94,0.0,0.0,84,0.00,,,0.00,meteobridge,2013-11-20 09:43:00,
2013-11-20 04:48:00,26.2,22.3,30.39,East,94,0.0,0.0,85,0.00,,,0.00,meteobridge,2013-11-20 09:48:00,
2013-11-20 04:53:00,26.1,22.5,30.39,East,94,0.0,0.0,86,0.00,,,0.00,meteobridge,2013-11-20 09:53:00,
2013-11-20 04:58:00,25.9,22.3,30.39,East,94,0.0,0.0,86,0.00,,,0.00,meteobridge,2013-11-20 09:58:00,
2013-11-20 05:03:00,25.5,21.9,30.39,East,94,0.0,0.0,86,0.00,,,0.00,meteobridge,2013-11-20 10:03:00,
2013-11-20 05:09:00,25.2,21.6,30.39,East,94,0.0,0.0,86,0.00,,,0.00,meteobridge,2013-11-20 10:09:00,
2013-11-20 05:14:00,24.6,21.0,30.39,East,94,0.0,0.0,86,0.00,,,0.00,meteobridge,2013-11-20 10:14:00,
2013-11-20 05:19:00,24.4,21.2,30.40,East,94,0.0,0.0,87,0.00,,,0.00,meteobridge,2013-11-20 10:19:00,
2013-11-20 05:24:00,24.1,21.0,30.40,East,94,0.0,0.0,88,0.00,,,0.00,meteobridge,2013-11-20 10:24:00,
2013-11-20 05:29:00,23.9,20.8,30.40,East,94,0.0,0.0,88,0.00,,,0.00,meteobridge,2013-11-20 10:29:00,
2013-11-20 05:34:00,23.7,21.0,30.40,East,94,0.0,0.0,89,0.00,,,0.00,meteobridge,2013-11-20 10:34:00,
2013-11-20 05:40:00,23.4,20.7,30.40,East,94,0.0,0.0,89,0.00,,,0.00,meteobridge,2013-11-20 10:40:00,
2013-11-20 05:45:00,23.2,20.5,30.40,East,94,0.0,0.0,89,0.00,,,0.00,meteobridge,2013-11-20 10:45:00,
2013-11-20 05:50:00,22.8,20.1,30.40,East,95,0.0,0.0,89,0.00,,,0.00,meteobridge,2013-11-20 10:50:00,
2013-11-20 05:55:00,23.2,20.7,30.40,East,94,0.0,0.0,90,0.00,,,0.00,meteobridge,2013-11-20 10:55:00,
2013-11-20 06:00:00,22.8,20.3,30.40,East,94,0.0,0.0,90,0.00,,,0.00,meteobridge,2013-11-20 11:00:00,
2013-11-20 06:05:00,22.8,20.3,30.40,East,94,0.0,0.0,90,0.00,,,0.00,meteobridge,2013-11-20 11:05:00,
2013-11-20 06:10:00,23.2,21.0,30.40,East,94,0.0,0.0,91,0.00,,,0.00,meteobridge,2013-11-20 11:10:00,
2013-11-20 06:16:00,23.2,21.0,30.41,East,94,0.0,0.0,91,0.00,,,0.00,meteobridge,2013-11-20 11:16:00,
2013-11-20 06:21:00,23.4,21.2,30.41,East,94,0.0,0.0,91,0.00,,,0.00,meteobridge,2013-11-20 11:21:00,
2013-11-20 06:26:00,23.5,21.4,30.41,East,94,0.0,0.0,91,0.00,,,0.00,meteobridge,2013-11-20 11:26:00,
2013-11-20 06:31:00,23.4,21.2,30.41,East,94,0.0,0.0,91,0.00,,,0.00,meteobridge,2013-11-20 11:31:00,
2013-11-20 06:36:00,23.2,21.0,30.41,East,94,0.0,0.0,91,0.00,,,0.00,meteobridge,2013-11-20 11:36:00,
2013-11-20 06:42:00,23.2,21.0,30.41,East,94,0.0,0.0,91,0.00,,,0.00,meteobridge,2013-11-20 11:42:00,
2013-11-20 06:47:00,22.6,20.5,30.41,East,94,0.0,0.0,91,0.00,,,0.00,meteobridge,2013-11-20 11:47:00,
2013-11-20 06:52:00,22.5,20.3,30.41,East,94,0.0,0.0,91,0.00,,,0.00,meteobridge,2013-11-20 11:52:00,
2013-11-20 06:57:00,22.5,20.3,30.41,East,94,0.0,0.0,91,0.00,,,0.00,meteobridge,2013-11-20 11:57:00,
2013-11-20 07:03:00,22.5,20.3,30.41,East,94,0.0,0.0,91,0.00,,,0.00,meteobridge,2013-11-20 12:03:00,
2013-11-20 07:08:00,22.5,20.3,30.41,East,94,0.0,0.0,91,0.00,,,0.00,meteobridge,2013-11-20 12:08:00,
2013-11-20 07:13:00,22.5,20.5,30.41,East,94,0.0,0.0,92,0.00,,,0.00,meteobridge,2013-11-20 12:13:00,
2013-11-20 07:18:00,22.5,20.5,30.42,East,94,0.0,0.0,92,0.00,,,0.00,meteobridge,2013-11-20 12:18:00,
2013-11-20 07:24:00,22.6,20.7,30.42,East,94,0.0,0.0,92,0.00,,,0.00,meteobridge,2013-11-20 12:24:00,
2013-11-20 07:29:00,22.6,20.7,30.42,East,94,0.0,0.0,92,0.00,,,0.00,meteobridge,2013-11-20 12:29:00,
2013-11-20 07:34:00,22.6,20.7,30.42,East,94,0.0,0.0,92,0.00,,,0.00,meteobridge,2013-11-20 12:34:00,
2013-11-20 07:39:00,23.0,21.2,30.42,East,94,0.0,0.0,93,0.00,,,0.00,meteobridge,2013-11-20 12:39:00,
2013-11-20 07:45:00,23.4,21.6,30.42,East,94,0.0,0.0,93,0.00,,,0.00,meteobridge,2013-11-20 12:45:00,
2013-11-20 07:50:00,23.5,21.7,30.42,SSW,210,0.9,0.9,93,0.00,,,0.00,meteobridge,2013-11-20 12:50:00,
2013-11-20 07:55:00,24.3,22.5,30.42,East,96,0.0,0.9,93,0.00,,,0.00,meteobridge,2013-11-20 12:55:00,
2013-11-20 08:00:00,24.6,22.8,30.42,East,96,0.0,0.9,93,0.00,,,0.00,meteobridge,2013-11-20 13:00:00,
2013-11-20 08:05:00,25.0,23.0,30.42,WNW,294,0.9,0.9,92,0.00,,,0.00,meteobridge,2013-11-20 13:05:00,
2013-11-20 08:10:00,25.3,23.4,30.42,SW,215,0.9,2.9,92,0.00,,,0.00,meteobridge,2013-11-20 13:10:00,
2013-11-20 08:15:00,26.4,24.4,30.42,East,89,0.0,0.9,92,0.00,,,0.00,meteobridge,2013-11-20 13:15:00,
2013-11-20 08:20:00,27.7,25.2,30.42,ESE,121,0.0,4.0,90,0.00,,,0.00,meteobridge,2013-11-20 13:20:00,
2013-11-20 08:25:00,28.8,25.2,30.42,SSW,209,0.9,6.9,86,0.00,,,0.00,meteobridge,2013-11-20 13:25:00,
2013-11-20 08:30:00,29.8,25.5,30.42,SW,233,0.9,6.9,84,0.00,,,0.00,meteobridge,2013-11-20 13:30:00,
2013-11-20 08:35:00,30.4,25.5,30.42,NE,40,0.9,4.9,82,0.00,,,0.00,meteobridge,2013-11-20 13:35:00,
2013-11-20 08:40:00,30.7,25.5,30.42,East,94,4.9,8.9,81,0.00,,,0.00,meteobridge,2013-11-20 13:40:00,
2013-11-20 08:45:00,31.1,25.3,30.41,ESE,109,0.9,8.1,79,0.00,,,0.00,meteobridge,2013-11-20 13:45:00,
2013-11-20 08:50:00,31.5,25.3,30.41,East,94,2.0,13.0,78,0.00,,,0.00,meteobridge,2013-11-20 13:50:00,
2013-11-20 08:56:00,31.8,25.5,30.41,SE,125,0.0,4.9,77,0.00,,,0.00,meteobridge,2013-11-20 13:56:00,
2013-11-20 09:01:00,32.2,25.5,30.42,East,81,8.9,13.0,76,0.00,,,0.00,meteobridge,2013-11-20 14:01:00,
2013-11-20 09:06:00,32.4,25.3,30.42,ESE,117,2.0,6.0,75,0.00,,,0.00,meteobridge,2013-11-20 14:06:00,
2013-11-20 09:11:00,32.7,25.3,30.42,NW,326,4.0,8.9,74,0.00,,,0.00,meteobridge,2013-11-20 14:11:00,
2013-11-20 09:16:00,32.9,25.2,30.42,SE,132,2.0,4.0,73,0.00,,,0.00,meteobridge,2013-11-20 14:16:00,
2013-11-20 09:21:00,33.3,24.8,30.42,East,84,4.9,16.1,71,0.00,,,0.00,meteobridge,2013-11-20 14:21:00,
2013-11-20 09:26:00,33.8,26.1,30.42,South,175,2.9,2.9,73,0.00,,,0.00,meteobridge,2013-11-20 14:26:00,
2013-11-20 09:31:00,34.2,25.3,30.42,ESE,106,2.0,2.9,70,0.00,,,0.00,meteobridge,2013-11-20 14:31:00,
2013-11-20 09:36:00,34.5,25.7,30.42,SE,146,2.0,4.0,70,0.00,,,0.00,meteobridge,2013-11-20 14:36:00,
2013-11-20 09:41:00,34.7,24.8,30.42,East,91,0.9,8.1,67,0.00,,,0.00,meteobridge,2013-11-20 14:41:00,
2013-11-20 09:46:00,35.1,25.2,30.42,East,96,6.9,10.1,67,0.00,,,0.00,meteobridge,2013-11-20 14:46:00,
2013-11-20 09:51:00,35.2,24.6,30.42,East,85,0.0,2.9,65,0.00,,,0.00,meteobridge,2013-11-20 14:51:00,
2013-11-20 09:56:00,35.8,24.4,30.42,West,267,0.9,8.9,63,0.00,,,0.00,meteobridge,2013-11-20 14:56:00,
2013-11-20 10:01:00,36.0,23.4,30.42,SE,142,2.9,6.9,60,0.00,,,0.00,meteobridge,2013-11-20 15:01:00,
2013-11-20 10:06:00,36.3,23.0,30.42,SE,137,4.0,8.1,58,0.00,,,0.00,meteobridge,2013-11-20 15:06:00,
2013-11-20 10:11:00,36.7,22.8,30.42,SE,138,2.9,8.9,57,0.00,,,0.00,meteobridge,2013-11-20 15:11:00,
2013-11-20 10:16:00,36.9,22.3,30.41,East,84,2.9,13.0,55,0.00,,,0.00,meteobridge,2013-11-20 15:16:00,
2013-11-20 10:21:00,37.2,22.1,30.41,NNE,30,6.0,10.1,54,0.00,,,0.00,meteobridge,2013-11-20 15:21:00,
2013-11-20 10:26:00,37.9,21.9,30.41,SE,145,0.9,6.9,52,0.00,,,0.00,meteobridge,2013-11-20 15:26:00,
2013-11-20 10:31:00,38.3,21.7,30.41,NNE,19,2.0,6.0,51,0.00,,,0.00,meteobridge,2013-11-20 15:31:00,
2013-11-20 10:36:00,38.7,21.2,30.41,SSE,148,4.9,10.1,49,0.00,,,0.00,meteobridge,2013-11-20 15:36:00,
2013-11-20 10:58:00,39.7,22.6,30.40,ENE,78,2.9,4.9,50,0.00,,,0.00,meteobridge,2013-11-20 15:58:00,
2013-11-20 11:03:00,40.1,21.6,30.40,ESE,122,2.0,12.1,47,0.00,,,0.00,meteobridge,2013-11-20 16:03:00,
2013-11-20 11:08:00,40.3,21.2,30.40,ESE,122,6.9,11.0,46,0.00,,,0.00,meteobridge,2013-11-20 16:08:00,
2013-11-20 11:13:00,41.0,22.3,30.40,ESE,103,0.9,2.9,47,0.00,,,0.00,meteobridge,2013-11-20 16:13:00,
2013-11-20 11:18:00,42.1,22.3,30.38,SSE,163,0.9,4.9,45,0.00,,,0.00,meteobridge,2013-11-20 16:18:00,
2013-11-20 11:23:00,42.6,20.5,30.38,SSE,154,2.9,6.9,41,0.00,,,0.00,meteobridge,2013-11-20 16:23:00,
2013-11-20 11:28:00,43.0,19.8,30.38,SE,145,4.9,8.1,39,0.00,,,0.00,meteobridge,2013-11-20 16:28:00,
2013-11-20 11:33:00,43.0,20.3,30.38,South,182,4.9,8.9,40,0.00,,,0.00,meteobridge,2013-11-20 16:33:00,
2013-11-20 11:38:00,43.2,21.0,30.38,NE,35,6.0,6.9,41,0.00,,,0.00,meteobridge,2013-11-20 16:38:00,
2013-11-20 11:43:00,43.0,20.3,30.38,SE,136,4.0,10.1,40,0.00,,,0.00,meteobridge,2013-11-20 16:43:00,
2013-11-20 11:48:00,43.3,21.2,30.38,SSE,148,2.9,8.9,41,0.00,,,0.00,meteobridge,2013-11-20 16:48:00,
2013-11-20 11:53:00,43.9,21.7,30.38,East,95,4.9,11.0,41,0.00,,,0.00,meteobridge,2013-11-20 16:53:00,
2013-11-20 11:58:00,44.1,20.1,30.38,ESE,114,4.9,8.1,38,0.00,,,0.00,meteobridge,2013-11-20 16:58:00,
2013-11-20 12:03:00,44.2,20.8,30.37,ESE,107,0.9,4.9,39,0.00,,,0.00,meteobridge,2013-11-20 17:03:00,
2013-11-20 12:08:00,44.8,20.7,30.37,ESE,108,4.9,6.9,38,0.00,,,0.00,meteobridge,2013-11-20 17:08:00,
2013-11-20 12:13:00,44.8,19.4,30.37,South,186,2.9,8.1,36,0.00,,,0.00,meteobridge,2013-11-20 17:13:00,
2013-11-20 12:18:00,45.0,19.6,30.36,ESE,109,2.9,10.1,36,0.00,,,0.00,meteobridge,2013-11-20 17:18:00,
2013-11-20 12:23:00,45.1,19.8,30.36,SSE,161,2.0,4.9,36,0.00,,,0.00,meteobridge,2013-11-20 17:23:00,
2013-11-20 12:28:00,45.1,19.8,30.36,East,87,2.9,6.9,36,0.00,,,0.00,meteobridge,2013-11-20 17:28:00,
2013-11-20 12:33:00,45.5,19.4,30.35,SSW,192,2.9,11.0,35,0.00,,,0.00,meteobridge,2013-11-20 17:33:00,
2013-11-20 12:38:00,46.2,18.7,30.35,NW,323,2.0,8.1,33,0.00,,,0.00,meteobridge,2013-11-20 17:38:00,
2013-11-20 12:44:00,46.8,17.8,30.35,SSW,205,6.9,8.9,31,0.00,,,0.00,meteobridge,2013-11-20 17:44:00,
2013-11-20 12:49:00,46.8,16.2,30.34,SW,226,8.1,12.1,29,0.00,,,0.00,meteobridge,2013-11-20 17:49:00,
2013-11-20 12:54:00,46.6,16.9,30.34,ESE,109,0.9,11.0,30,0.00,,,0.00,meteobridge,2013-11-20 17:54:00,
2013-11-20 12:59:00,46.8,16.9,30.34,SSW,206,4.9,8.1,30,0.00,,,0.00,meteobridge,2013-11-20 17:59:00,
2013-11-20 13:04:00,46.8,16.9,30.34,SW,214,4.0,8.1,30,0.00,,,0.00,meteobridge,2013-11-20 18:04:00,
2013-11-20 13:09:00,46.9,17.1,30.34,NE,50,2.0,10.1,30,0.00,,,0.00,meteobridge,2013-11-20 18:09:00,
2013-11-20 13:14:00,47.1,18.7,30.34,SE,146,0.0,6.9,32,0.00,,,0.00,meteobridge,2013-11-20 18:14:00,
2013-11-20 13:19:00,47.5,19.0,30.34,SSE,148,0.9,2.9,32,0.00,,,0.00,meteobridge,2013-11-20 18:19:00,
2013-11-20 13:24:00,47.7,18.5,30.34,NE,53,2.9,4.9,31,0.00,,,0.00,meteobridge,2013-11-20 18:24:00,
2013-11-20 13:29:00,47.3,18.1,30.34,SW,234,2.0,2.9,31,0.00,,,0.00,meteobridge,2013-11-20 18:29:00,
2013-11-20 13:34:00,47.5,17.6,30.33,SE,132,0.9,4.0,30,0.00,,,0.00,meteobridge,2013-11-20 18:34:00,
2013-11-20 13:39:00,47.5,17.6,30.33,SSW,202,6.0,6.9,30,0.00,,,0.00,meteobridge,2013-11-20 18:39:00,
2013-11-20 13:44:00,47.3,17.4,30.33,SE,138,4.9,8.1,30,0.00,,,0.00,meteobridge,2013-11-20 18:44:00,
2013-11-20 13:49:00,47.5,16.0,30.33,SSW,199,4.9,8.9,28,0.00,,,0.00,meteobridge,2013-11-20 18:49:00,
2013-11-20 13:54:00,47.1,16.5,30.33,SSE,148,4.0,6.9,29,0.00,,,0.00,meteobridge,2013-11-20 18:54:00,
2013-11-20 13:59:00,47.3,16.7,30.32,SE,132,4.9,6.0,29,0.00,,,0.00,meteobridge,2013-11-20 18:59:00,
2013-11-20 14:04:00,47.3,16.7,30.32,SSW,211,4.0,6.9,29,0.00,,,0.00,meteobridge,2013-11-20 19:04:00,
2013-11-20 14:09:00,47.3,16.7,30.32,East,90,6.9,10.1,29,0.00,,,0.00,meteobridge,2013-11-20 19:09:00,
2013-11-20 14:14:00,47.1,16.5,30.32,SSE,165,6.0,8.9,29,0.00,,,0.00,meteobridge,2013-11-20 19:14:00,
2013-11-20 14:19:00,47.1,16.5,30.32,ESE,119,2.9,8.1,29,0.00,,,0.00,meteobridge,2013-11-20 19:19:00,
2013-11-20 14:24:00,47.5,17.6,30.32,ESE,118,11.0,11.0,30,0.00,,,0.00,meteobridge,2013-11-20 19:24:00,
2013-11-20 14:30:00,47.3,17.4,30.32,SSE,159,2.9,8.9,30,0.00,,,0.00,meteobridge,2013-11-20 19:30:00,
2013-11-20 14:35:00,47.3,16.7,30.32,ESE,122,4.9,8.1,29,0.00,,,0.00,meteobridge,2013-11-20 19:35:00,
2013-11-20 14:40:00,47.1,16.5,30.32,ESE,102,2.0,6.0,29,0.00,,,0.00,meteobridge,2013-11-20 19:40:00,
2013-11-20 14:45:00,47.3,17.4,30.31,South,171,2.9,2.9,30,0.00,,,0.00,meteobridge,2013-11-20 19:45:00,
2013-11-20 14:50:00,47.5,17.6,30.31,NE,42,2.0,4.9,30,0.00,,,0.00,meteobridge,2013-11-20 19:50:00,
2013-11-20 14:55:00,47.5,17.6,30.31,ESE,113,2.9,11.0,30,0.00,,,0.00,meteobridge,2013-11-20 19:55:00,
2013-11-20 15:00:00,47.1,17.2,30.31,SSE,151,2.9,6.0,30,0.00,,,0.00,meteobridge,2013-11-20 20:00:00,
2013-11-20 15:05:00,47.3,17.4,30.31,SSW,199,4.0,8.1,30,0.00,,,0.00,meteobridge,2013-11-20 20:05:00,
2013-11-20 15:10:00,47.1,18.0,30.31,SE,138,4.9,6.9,31,0.00,,,0.00,meteobridge,2013-11-20 20:10:00,
2013-11-20 15:15:00,47.1,18.0,30.31,ESE,123,0.9,6.9,31,0.00,,,0.00,meteobridge,2013-11-20 20:15:00,
2013-11-20 15:20:00,47.3,18.1,30.31,ESE,108,8.9,8.9,31,0.00,,,0.00,meteobridge,2013-11-20 20:20:00,
2013-11-20 15:25:00,47.3,17.4,30.31,South,182,4.0,8.1,30,0.00,,,0.00,meteobridge,2013-11-20 20:25:00,
2013-11-20 15:30:00,47.7,19.2,30.30,SE,125,2.9,4.9,32,0.00,,,0.00,meteobridge,2013-11-20 20:30:00,
2013-11-20 15:35:00,47.8,18.7,30.30,South,176,0.9,4.0,31,0.00,,,0.00,meteobridge,2013-11-20 20:35:00,
2013-11-20 15:40:00,47.8,18.0,30.30,SE,143,4.9,8.1,30,0.00,,,0.00,meteobridge,2013-11-20 20:40:00,
2013-11-20 15:45:00,47.7,18.5,30.30,SSE,156,4.0,4.0,31,0.00,,,0.00,meteobridge,2013-11-20 20:45:00,
2013-11-20 15:50:00,47.1,18.7,30.30,SSE,156,2.0,2.9,32,0.00,,,0.00,meteobridge,2013-11-20 20:50:00,
2013-11-20 15:55:00,46.8,19.2,30.30,SE,125,0.0,4.9,33,0.00,,,0.00,meteobridge,2013-11-20 20:55:00,
2013-11-20 16:00:00,46.4,18.9,30.30,SSW,198,0.9,2.9,33,0.00,,,0.00,meteobridge,2013-11-20 21:00:00,
2013-11-20 16:05:00,46.0,18.5,30.30,WSW,257,0.9,8.1,33,0.00,,,0.00,meteobridge,2013-11-20 21:05:00,
2013-11-20 16:10:00,45.7,18.9,30.30,SE,137,2.0,2.0,34,0.00,,,0.00,meteobridge,2013-11-20 21:10:00,
2013-11-20 16:15:00,45.3,18.7,30.29,ESE,107,2.0,2.0,34,0.00,,,0.00,meteobridge,2013-11-20 21:15:00,
2013-11-20 16:20:00,45.1,18.5,30.29,SE,134,0.9,2.0,34,0.00,,,0.00,meteobridge,2013-11-20 21:20:00,
2013-11-20 16:25:00,45.3,18.7,30.29,SE,126,0.9,6.0,34,0.00,,,0.00,meteobridge,2013-11-20 21:25:00,
2013-11-20 16:31:00,45.5,18.7,30.29,ESE,112,2.0,2.9,34,0.00,,,0.00,meteobridge,2013-11-20 21:31:00,
2013-11-20 16:36:00,45.3,18.7,30.29,ESE,123,0.9,4.9,34,0.00,,,0.00,meteobridge,2013-11-20 21:36:00,
2013-11-20 16:41:00,45.1,18.5,30.29,ESE,115,2.9,2.9,34,0.00,,,0.00,meteobridge,2013-11-20 21:41:00,
2013-11-20 16:46:00,45.0,18.3,30.28,ESE,105,2.0,4.0,34,0.00,,,0.00,meteobridge,2013-11-20 21:46:00,
2013-11-20 16:51:00,44.8,18.9,30.28,SE,132,0.0,2.0,35,0.00,,,0.00,meteobridge,2013-11-20 21:51:00,
2013-11-20 16:56:00,44.6,18.7,30.28,East,92,2.0,6.0,35,0.00,,,0.00,meteobridge,2013-11-20 21:56:00,
2013-11-20 17:01:00,44.4,18.5,30.28,East,97,2.9,4.9,35,0.00,,,0.00,meteobridge,2013-11-20 22:01:00,
2013-11-20 17:06:00,44.2,19.0,30.28,ESE,109,4.0,6.0,36,0.00,,,0.00,meteobridge,2013-11-20 22:06:00,
2013-11-20 17:11:00,44.1,18.1,30.28,SE,130,0.9,6.9,35,0.00,,,0.00,meteobridge,2013-11-20 22:11:00,
2013-11-20 17:16:00,43.9,18.7,30.27,ESE,121,2.9,6.9,36,0.00,,,0.00,meteobridge,2013-11-20 22:16:00,
2013-11-20 17:21:00,43.7,18.5,30.27,ESE,110,0.9,6.0,36,0.00,,,0.00,meteobridge,2013-11-20 22:21:00,
2013-11-20 17:26:00,43.5,18.3,30.27,SE,138,0.0,2.9,36,0.00,,,0.00,meteobridge,2013-11-20 22:26:00,
2013-11-20 17:32:00,43.3,18.9,30.28,ENE,75,0.0,2.0,37,0.00,,,0.00,meteobridge,2013-11-20 22:32:00,
2013-11-20 17:37:00,43.0,19.0,30.28,ESE,109,0.9,4.0,38,0.00,,,0.00,meteobridge,2013-11-20 22:37:00,
2013-11-20 17:42:00,42.4,18.7,30.28,SW,223,0.0,0.9,38,0.00,,,0.00,meteobridge,2013-11-20 22:42:00,
2013-11-20 17:47:00,42.1,18.9,30.28,ESE,118,0.0,2.0,39,0.00,,,0.00,meteobridge,2013-11-20 22:47:00,
2013-11-20 17:52:00,42.1,18.9,30.28,South,190,0.9,4.0,39,0.00,,,0.00,meteobridge,2013-11-20 22:52:00,
2013-11-20 17:58:00,42.1,18.9,30.28,WSW,238,2.0,2.0,39,0.00,,,0.00,meteobridge,2013-11-20 22:58:00,
2013-11-20 18:03:00,41.9,18.7,30.29,SSW,198,0.9,2.0,39,0.00,,,0.00,meteobridge,2013-11-20 23:03:00,
2013-11-20 18:08:00,41.7,18.5,30.29,ESE,112,0.9,2.9,39,0.00,,,0.00,meteobridge,2013-11-20 23:08:00,
2013-11-20 18:13:00,41.5,18.5,30.29,South,182,0.9,2.9,39,0.00,,,0.00,meteobridge,2013-11-20 23:13:00,
2013-11-20 18:18:00,41.5,19.0,30.29,SE,131,0.9,2.0,40,0.00,,,0.00,meteobridge,2013-11-20 23:18:00,
2013-11-20 18:23:00,41.2,18.7,30.29,SSE,165,0.0,0.0,40,0.00,,,0.00,meteobridge,2013-11-20 23:23:00,
2013-11-20 18:28:00,40.8,18.9,30.29,SSE,155,0.0,0.0,41,0.00,,,0.00,meteobridge,2013-11-20 23:28:00,
2013-11-20 18:33:00,40.5,19.2,30.30,SSE,168,0.0,0.9,42,0.00,,,0.00,meteobridge,2013-11-20 23:33:00,
2013-11-20 18:38:00,40.3,19.0,30.30,SSE,168,0.0,0.0,42,0.00,,,0.00,meteobridge,2013-11-20 23:38:00,
2013-11-20 18:43:00,39.7,19.0,30.30,SSW,209,0.0,2.0,43,0.00,,,0.00,meteobridge,2013-11-20 23:43:00,
2013-11-20 18:48:00,39.6,18.9,30.30,SSE,160,0.0,0.0,43,0.00,,,0.00,meteobridge,2013-11-20 23:48:00,
2013-11-20 18:54:00,39.4,18.7,30.30,SSE,160,0.0,0.0,43,0.00,,,0.00,meteobridge,2013-11-20 23:54:00,
2013-11-20 18:59:00,39.0,18.9,30.30,SSE,152,0.0,0.9,44,0.00,,,0.00,meteobridge,2013-11-20 23:59:00,
2013-11-20 19:04:00,38.8,18.9,30.29,SSE,152,0.0,0.9,44,0.00,,,0.00,meteobridge,2013-11-21 00:04:00,
2013-11-20 19:09:00,38.7,19.2,30.29,South,191,0.0,0.0,45,0.00,,,0.00,meteobridge,2013-11-21 00:09:00,
2013-11-20 19:14:00,38.5,19.0,30.29,SE,130,0.0,0.9,45,0.00,,,0.00,meteobridge,2013-11-21 00:14:00,
2013-11-20 19:19:00,38.3,18.9,30.29,SSE,152,0.9,2.0,45,0.00,,,0.00,meteobridge,2013-11-21 00:19:00,
2013-11-20 19:24:00,38.3,18.9,30.29,SSE,153,0.9,0.9,45,0.00,,,0.00,meteobridge,2013-11-21 00:24:00,
2013-11-20 19:30:00,38.5,19.0,30.29,SSW,213,0.0,2.0,45,0.00,,,0.00,meteobridge,2013-11-21 00:30:00,
2013-11-20 19:35:00,38.8,18.9,30.29,SSW,209,2.0,4.0,44,0.00,,,0.00,meteobridge,2013-11-21 00:35:00,
2013-11-20 19:40:00,39.4,18.7,30.29,SSE,150,0.9,4.0,43,0.00,,,0.00,meteobridge,2013-11-21 00:40:00,
2013-11-20 19:45:00,39.7,18.5,30.29,South,190,4.0,4.0,42,0.00,,,0.00,meteobridge,2013-11-21 00:45:00,
2013-11-20 19:50:00,39.9,18.7,30.29,SE,134,2.0,4.0,42,0.00,,,0.00,meteobridge,2013-11-21 00:50:00,
2013-11-20 19:55:00,39.9,18.1,30.29,SSW,199,2.0,2.9,41,0.00,,,0.00,meteobridge,2013-11-21 00:55:00,
2013-11-20 20:00:00,40.3,18.0,30.29,SSE,156,0.0,4.0,40,0.00,,,0.00,meteobridge,2013-11-21 01:00:00,
2013-11-20 20:05:00,40.5,18.0,30.29,SE,126,0.9,2.9,40,0.00,,,0.00,meteobridge,2013-11-21 01:05:00,
2013-11-20 20:10:00,40.5,18.0,30.29,SSW,213,2.0,2.9,40,0.00,,,0.00,meteobridge,2013-11-21 01:10:00,
2013-11-20 20:15:00,40.6,18.1,30.28,SSE,153,2.9,6.0,40,0.00,,,0.00,meteobridge,2013-11-21 01:15:00,
2013-11-20 20:20:00,40.6,17.6,30.28,South,169,2.0,6.0,39,0.00,,,0.00,meteobridge,2013-11-21 01:20:00,
2013-11-20 20:25:00,40.8,17.8,30.28,SSE,163,0.9,6.9,39,0.00,,,0.00,meteobridge,2013-11-21 01:25:00,
2013-11-20 20:30:00,40.8,17.8,30.28,ESE,123,2.0,4.0,39,0.00,,,0.00,meteobridge,2013-11-21 01:30:00,
2013-11-20 20:35:00,40.8,17.2,30.28,SE,135,2.0,4.9,38,0.00,,,0.00,meteobridge,2013-11-21 01:35:00,
2013-11-20 20:40:00,40.8,17.2,30.28,ESE,117,4.0,4.9,38,0.00,,,0.00,meteobridge,2013-11-21 01:40:00,
2013-11-20 20:45:00,40.8,17.8,30.28,SE,136,2.9,8.1,39,0.00,,,0.00,meteobridge,2013-11-21 01:45:00,
2013-11-20 20:50:00,40.8,17.2,30.28,SE,144,2.0,4.9,38,0.00,,,0.00,meteobridge,2013-11-21 01:50:00,
2013-11-20 20:55:00,40.6,17.6,30.28,SE,142,0.9,4.9,39,0.00,,,0.00,meteobridge,2013-11-21 01:55:00,
2013-11-20 21:01:00,40.5,17.4,30.28,South,178,2.0,4.0,39,0.00,,,0.00,meteobridge,2013-11-21 02:01:00,
2013-11-20 21:06:00,40.3,17.2,30.28,South,176,0.9,2.9,39,0.00,,,0.00,meteobridge,2013-11-21 02:06:00,
2013-11-20 21:11:00,40.3,17.2,30.28,SE,142,2.0,4.9,39,0.00,,,0.00,meteobridge,2013-11-21 02:11:00,
2013-11-20 21:16:00,40.3,17.2,30.28,South,176,2.9,6.9,39,0.00,,,0.00,meteobridge,2013-11-21 02:16:00,
2013-11-20 21:21:00,40.3,16.7,30.28,SSE,158,4.0,6.9,38,0.00,,,0.00,meteobridge,2013-11-21 02:21:00,
2013-11-20 21:26:00,40.3,17.2,30.28,East,96,4.9,4.9,39,0.00,,,0.00,meteobridge,2013-11-21 02:26:00,
2013-11-20 21:31:00,40.5,16.9,30.27,SE,132,0.9,6.0,38,0.00,,,0.00,meteobridge,2013-11-21 02:31:00,
2013-11-20 21:36:00,40.5,16.9,30.27,WSW,250,2.9,11.0,38,0.00,,,0.00,meteobridge,2013-11-21 02:36:00,
2013-11-20 21:41:00,40.5,16.9,30.27,SE,132,2.9,8.1,38,0.00,,,0.00,meteobridge,2013-11-21 02:41:00,
2013-11-20 21:46:00,40.5,16.9,30.28,SE,129,2.9,10.1,38,0.00,,,0.00,meteobridge,2013-11-21 02:46:00,
2013-11-20 21:51:00,40.3,16.7,30.28,SE,128,2.9,6.0,38,0.00,,,0.00,meteobridge,2013-11-21 02:51:00,
2013-11-20 21:56:00,40.3,16.7,30.28,SSW,199,2.0,10.1,38,0.00,,,0.00,meteobridge,2013-11-21 02:56:00,
2013-11-20 22:01:00,40.1,16.5,30.28,East,100,2.9,6.9,38,0.00,,,0.00,meteobridge,2013-11-21 03:01:00,
2013-11-20 22:06:00,39.9,16.3,30.28,South,182,4.9,6.9,38,0.00,,,0.00,meteobridge,2013-11-21 03:06:00,
2013-11-20 22:11:00,39.9,16.3,30.28,ESE,102,6.9,8.1,38,0.00,,,0.00,meteobridge,2013-11-21 03:11:00,
2013-11-20 22:16:00,39.9,16.3,30.28,SE,134,4.0,11.0,38,0.00,,,0.00,meteobridge,2013-11-21 03:16:00,
2013-11-20 22:21:00,39.9,16.3,30.28,SSE,157,2.9,6.0,38,0.00,,,0.00,meteobridge,2013-11-21 03:21:00,
2013-11-20 22:26:00,39.9,16.3,30.28,SSW,210,4.0,12.1,38,0.00,,,0.00,meteobridge,2013-11-21 03:26:00,
2013-11-20 22:31:00,39.9,16.9,30.28,SSE,152,2.9,8.1,39,0.00,,,0.00,meteobridge,2013-11-21 03:31:00,
2013-11-20 22:36:00,39.7,16.9,30.28,ESE,121,4.9,8.9,39,0.00,,,0.00,meteobridge,2013-11-21 03:36:00,
2013-11-20 22:41:00,39.7,16.9,30.28,ESE,122,4.9,10.1,39,0.00,,,0.00,meteobridge,2013-11-21 03:41:00,
2013-11-20 22:46:00,39.7,16.9,30.29,SSE,164,6.9,8.9,39,0.00,,,0.00,meteobridge,2013-11-21 03:46:00,
2013-11-20 22:52:00,39.7,16.2,30.29,SE,138,4.0,8.9,38,0.00,,,0.00,meteobridge,2013-11-21 03:52:00,
2013-11-20 22:57:00,39.7,16.9,30.29,SSE,163,4.0,6.9,39,0.00,,,0.00,meteobridge,2013-11-21 03:57:00,
2013-11-20 23:02:00,39.7,16.9,30.28,South,173,4.0,8.9,39,0.00,,,0.00,meteobridge,2013-11-21 04:02:00,
2013-11-20 23:07:00,39.7,16.9,30.28,ESE,123,6.9,11.0,39,0.00,,,0.00,meteobridge,2013-11-21 04:07:00,
2013-11-20 23:12:00,39.7,16.9,30.28,SE,145,2.0,6.0,39,0.00,,,0.00,meteobridge,2013-11-21 04:12:00,
2013-11-20 23:17:00,39.9,16.9,30.28,South,184,2.9,8.9,39,0.00,,,0.00,meteobridge,2013-11-21 04:17:00,
2013-11-20 23:22:00,39.9,16.9,30.28,SW,215,6.0,6.9,39,0.00,,,0.00,meteobridge,2013-11-21 04:22:00,
2013-11-20 23:27:00,39.9,16.9,30.28,SSW,195,4.9,8.9,39,0.00,,,0.00,meteobridge,2013-11-21 04:27:00,
2013-11-20 23:32:00,39.9,16.9,30.28,SE,145,4.9,10.1,39,0.00,,,0.00,meteobridge,2013-11-21 04:32:00,
2013-11-20 23:37:00,39.9,16.9,30.28,WSW,238,8.1,13.0,39,0.00,,,0.00,meteobridge,2013-11-21 04:37:00,
2013-11-20 23:42:00,39.9,17.6,30.28,SE,145,2.9,6.0,40,0.00,,,0.00,meteobridge,2013-11-21 04:42:00,
2013-11-20 23:47:00,39.9,17.6,30.28,SE,128,2.0,6.0,40,0.00,,,0.00,meteobridge,2013-11-21 04:47:00,
2013-11-20 23:52:00,39.9,17.6,30.28,SW,217,2.0,6.9,40,0.00,,,0.00,meteobridge,2013-11-21 04:52:00,
2013-11-20 23:57:00,39.7,17.4,30.28,SSE,153,2.9,6.0,40,0.00,,,0.00,meteobridge,2013-11-21 04:57:00,